GFSGL_con_lsi_132.txt.gz
Lid_Strength_Index
8 6 4 4 3 2 2 2 2 2 2 3 3 4 4 5 6 6 6 7 7 8 8 8 9 8 9 9 9 9 11 11 12 12 12 12 12 12 12 11 11 11 11
7 7 7 6 5 4 3 2 2 3 4 4 5 6 6 7 8 8 9 8 8 9 10 9 9 10 11 10 10 11 12 12 12 13 12 13 12 12 12 12 11 10 11
7 7 7 7 7 7 6 4 4 5 5 7 7 7 8 9 9 9 9 9 9 10 10 10 10 11 12 12 12 13 12 12 13 13 14 13 13 13 14 13 12 13 11
7 7 8 8 7 6 7 7 7 6 7 7 6 7 9 9 10 11 11 10 10 10 10 11 11 12 13 13 13 13 13 14 14 14 15 14 14 13 15 15 15 15 14
7 8 7 7 6 7 9 10 9 9 9 8 9 10 11 11 11 13 12 11 11 12 11 12 12 13 12 12 13 14 14 14 14 15 15 15 16 15 15 15 16 15 14
7 8 8 9 10 10 10 12 12 13 12 12 12 12 13 13 12 11 11 12 12 13 13 14 14 14 13 12 11 11 12 14 16 16 16 16 14 15 15 15 14 15 18
8 10 10 11 11 12 12 13 13 13 12 12 12 12 14 12 10 10 11 13 13 14 14 15 15 14 14 13 12 12 12 11 12 14 16 14 14 14 14 15 14 14 14
11 12 12 12 12 13 13 13 13 13 13 12 14 13 13 12 10 11 12 13 14 14 14 14 14 14 14 14 14 14 14 14 13 13 13 13 13 13 13 12 13 13 14
12 13 13 12 13 13 13 13 13 13 14 14 13 13 13 13 11 11 13 14 14 14 14 14 14 14 13 12 14 14 14 14 11 11 11 11 11 11 12 17 19 15 19
12 13 13 13 12 12 13 13 14 13 14 13 13 13 13 13 11 11 13 14 15 15 14 14 14 14 12 12 14 15 17 15 15 16 15 13 13 13 12 13 14 19 16
14 14 15 15 14 13 13 14 13 14 13 13 14 14 14 13 13 12 12 14 14 14 14 15 14 12 12 12 12 15 16 15 15 18 18 18 17 16 16 16 15 17 20
15 15 17 17 15 14 13 13 14 13 14 14 14 15 15 15 13 11 12 12 12 14 14 15 15 13 12 12 13 12 12 15 21 22 22 21 19 18 17 17 17 17 16
16 16 16 16 15 15 15 14 14 14 14 15 15 16 16 16 15 12 12 12 12 14 14 14 13 12 12 12 12 13 18 22 22 24 22 20 18 18 19 20 20 20 19
16 17 17 16 16 15 15 15 15 16 16 17 16 16 15 16 15 15 14 13 14 14 14 15 14 14 14 16 17 16 19 19 20 22 21 20 20 22 22 20 22 21 22
16 17 17 16 16 17 17 17 16 16 15 16 16 15 15 16 15 14 14 15 15 15 18 19 18 17 21 21 22 21 20 22 22 23 23 23 22 21 21 22 21 24 23
18 18 18 18 19 18 18 18 14 14 14 13 13 13 15 14 13 13 12 12 12 12 16 16 17 17 18 18 19 19 19 19 19 20 22 21 20 20 22 22 22 24 24
18 19 19 18 19 20 19 19 19 18 15 15 14 14 13 14 14 12 12 12 12 12 15 16 17 17 17 17 17 17 18 18 19 19 19 20 21 22 22 24 22 22 24
20 19 20 20 20 20 19 19 18 18 18 18 16 15 14 14 13 13 12 12 14 13 14 15 16 16 16 17 17 18 18 21 20 19 20 19 22 22 24 22 21 23 25
20 21 22 22 22 21 21 21 21 21 21 19 18 16 16 13 13 13 12 15 15 15 14 14 14 15 16 17 18 18 17 18 19 20 19 19 19 20 21 19 19 21 21
24 22 23 23 23 23 23 23 23 22 21 19 18 17 17 19 18 15 16 15 13 13 14 14 16 16 17 20 18 17 17 17 17 18 18 18 18 19 19 19 18 18 20
23 25 24 25 25 25 24 24 24 24 24 23 22 20 15 21 20 18 15 14 14 13 13 13 14 15 15 16 17 17 17 17 17 17 18 18 18 18 18 17 18 18 19
26 27 27 27 27 26 27 26 25 25 25 25 24 23 15 22 20 21 19 16 14 13 13 14 15 17 16 16 16 17 17 17 17 17 17 17 17 17 17 18 18 18 19
26 27 28 28 28 28 28 29 28 28 28 28 27 26 26 26 26 24 22 21 19 16 19 17 15 16 16 17 16 15 16 16 16 16 17 17 17 17 18 18 18 19 19
29 30 30 31 31 31 31 30 29 28 28 29 29 28 28 28 28 26 25 24 23 20 21 22 21 18 16 16 16 16 16 16 16 16 16 17 17 17 17 18 18 19 19
31 32 33 32 33 32 31 31 30 31 31 29 29 29 29 29 28 27 26 26 26 27 25 23 23 23 20 18 18 18 17 15 15 15 15 16 16 17 17 18 18 18 19
34 34 34 34 34 34 33 32 32 31 31 30 29 30 29 28 27 27 27 26 25 25 25 24 21 20 20 19 18 16 16 14 15 15 15 16 17 17 17 18 18 19 19

GFSGL_con_lsi_138.txt.gz
Lid_Strength_Index
6 6 6 5 4 3 2 2 3 3 2 2 2 2 1 2 2 3 3 4 5 5 6 5 5 6 5 6 7 7 8 8 9 12 11 12 12 13 12 12 11 12 13
9 9 8 7 6 5 4 4 4 3 4 3 3 3 3 4 3 3 4 6 5 7 7 7 7 8 8 8 8 9 9 10 10 12 13 13 13 13 12 13 12 12 14
9 9 9 9 8 7 7 7 6 5 5 5 5 4 5 5 6 6 6 7 6 7 8 7 8 8 10 10 11 11 11 11 11 13 13 13 14 13 14 13 14 14 13
9 9 10 10 9 9 9 8 6 6 5 6 6 6 6 7 8 9 8 8 8 8 8 8 9 9 10 11 11 12 12 12 13 14 14 14 14 14 14 14 15 15 16
9 10 10 10 10 10 10 10 9 8 7 7 7 7 8 8 9 9 10 9 10 10 11 10 10 12 12 10 11 12 12 13 14 14 15 15 15 15 14 15 15 15 16
10 10 10 10 10 10 10 10 11 11 10 9 9 9 10 11 9 9 9 10 11 11 13 13 13 13 12 10 10 11 12 14 14 14 15 14 14 14 14 15 15 17 19
10 11 11 12 12 12 11 11 11 11 10 10 11 11 11 10 9 9 10 12 12 12 13 13 14 13 12 12 11 11 11 11 12 13 14 14 14 14 14 15 16 16 17
12 12 13 12 12 12 12 11 12 12 11 12 12 11 11 11 9 10 12 12 13 13 13 13 13 13 13 13 13 13 13 13 12 13 13 13 13 13 14 14 15 17 18
13 13 13 11 12 12 12 12 12 13 13 13 13 13 13 13 11 11 12 13 13 13 13 13 13 13 12 11 13 14 14 14 12 11 12 12 11 12 13 17 21 21 22
13 13 13 11 12 12 12 13 13 13 13 13 13 13 13 13 10 11 12 13 13 14 14 14 14 13 11 11 14 14 15 14 14 15 13 12 12 13 11 14 17 22 24
14 14 14 13 12 12 13 13 13 13 13 13 13 13 13 13 12 11 11 13 13 14 14 14 14 12 11 11 12 13 14 14 13 14 15 16 16 16 16 15 15 18 22
15 15 17 16 13 13 13 13 13 13 13 13 13 14 14 14 12 11 11 12 12 13 14 15 14 12 11 11 11 12 12 12 17 18 19 17 17 17 17 17 17 17 17
17 17 19 18 14 13 13 13 13 13 13 14 14 14 14 14 13 11 11 11 11 14 14 14 12 11 11 11 11 11 13 17 18 20 18 17 18 17 19 21 22 22 20
17 18 19 18 18 16 15 14 13 13 14 14 14 14 14 15 14 14 16 16 13 13 13 13 13 12 12 13 16 13 13 15 17 17 17 18 20 21 21 20 21 22 23
18 18 18 18 18 19 18 17 16 16 14 15 16 17 17 20 17 14 15 17 16 15 19 18 17 19 19 18 19 20 17 16 17 19 19 20 21 20 20 21 22 25 22
18 19 19 19 19 19 19 19 14 13 12 12 12 16 18 14 12 12 11 11 11 12 20 23 22 17 16 17 16 18 20 20 18 18 17 18 18 18 18 21 20 20 19
19 20 20 20 20 20 22 21 21 19 14 13 13 13 13 13 13 12 12 11 11 11 14 14 15 16 15 16 18 21 18 20 18 18 17 17 18 18 18 18 18 18 19
21 21 21 22 22 22 23 23 23 23 23 23 17 15 14 13 13 13 13 14 16 13 13 14 14 14 15 16 18 18 17 17 17 16 17 17 17 18 19 19 18 18 18
21 22 22 23 24 23 23 24 25 26 26 26 25 18 21 15 14 14 13 23 22 15 15 15 14 14 14 14 15 15 15 15 16 17 17 17 17 18 18 17 17 17 17
23 23 23 23 23 22 23 24 24 26 26 28 27 27 25 23 25 26 27 26 18 17 16 15 15 14 14 14 15 15 15 16 17 18 17 17 17 17 17 16 17 17 17
23 24 24 24 25 26 27 27 29 28 30 31 30 27 17 27 29 26 20 20 22 23 21 19 19 18 17 18 17 17 19 17 18 18 18 17 17 17 17 16 16 16 16
25 25 26 27 27 27 30 30 31 31 33 32 32 31 21 32 33 34 33 32 31 30 28 27 26 24 24 20 19 19 19 20 21 19 18 17 17 17 17 16 17 16 16
25 25 27 30 30 30 31 34 33 34 34 36 35 34 34 35 35 33 33 32 31 30 29 30 30 28 26 25 23 21 21 20 19 19 17 18 18 17 17 16 16 16 16
26 26 27 30 30 33 33 35 35 33 35 35 36 36 33 34 35 34 34 32 32 31 31 30 30 29 28 28 27 25 23 22 21 18 17 16 16 17 16 16 16 16 16
30 29 29 30 31 31 33 34 34 36 36 33 33 34 34 33 33 31 31 31 30 30 29 29 30 30 29 26 25 24 23 20 22 20 17 17 17 19 19 17 16 17 17
31 30 30 31 32 34 34 34 34 35 35 32 32 35 35 34 33 33 32 32 31 30 28 30 29 27 26 26 25 20 18 14 16 17 19 21 22 22 22 20 19 19 20

GFSGL_con_lsi_141.txt.gz
Lid_Strength_Index
5 5 4 4 4 3 2 3 3 3 3 3 2 2 2 2 2 2 2 2 3 2 5 4 4 4 4 5 5 4 5 6 7 12 11 11 11 12 12 12 12 12 12
7 7 6 6 6 5 4 4 3 2 2 2 2 3 3 3 3 3 4 5 4 4 5 6 5 7 6 7 7 7 8 8 10 12 12 13 12 12 13 13 12 12 13
10 10 10 9 8 7 7 7 5 4 4 4 4 4 4 5 5 5 5 5 5 5 6 6 6 8 8 9 9 9 10 11 11 12 13 13 13 13 14 14 13 13 13
10 10 11 10 10 10 10 8 7 6 6 7 6 6 6 6 6 6 7 7 7 7 8 7 8 8 8 10 10 11 11 12 12 13 13 14 14 14 14 14 15 15 15
10 10 11 11 10 11 11 11 9 8 8 7 8 8 8 8 9 8 9 8 8 9 10 9 10 11 11 10 11 12 12 13 13 13 14 14 15 16 15 14 15 15 15
10 11 11 11 12 12 12 12 12 12 11 10 10 10 9 10 8 8 8 8 9 11 11 12 11 13 11 11 10 11 11 12 13 13 15 16 15 14 14 14 15 16 17
11 12 12 13 13 13 12 12 12 12 12 11 11 10 10 10 8 8 9 10 10 11 12 12 13 13 13 12 10 10 11 10 11 13 14 14 14 13 14 15 15 15 16
12 13 14 13 13 13 12 12 12 12 11 12 12 11 11 11 9 10 11 11 12 13 12 12 12 12 12 12 12 12 13 12 12 12 13 13 13 13 13 14 14 16 16
13 13 13 13 13 12 13 12 13 13 13 13 13 12 12 12 10 10 12 13 13 14 13 13 12 12 11 11 13 13 13 13 12 11 11 12 12 12 13 16 19 18 19
13 13 13 12 12 12 12 13 14 13 13 13 13 12 13 12 10 10 12 13 13 14 13 13 13 13 11 11 13 13 14 13 14 14 14 13 12 12 11 14 16 20 21
14 14 15 13 12 12 13 13 13 13 13 13 13 13 13 12 12 10 11 13 13 13 13 14 14 12 11 11 12 13 14 14 14 16 16 16 16 15 15 15 15 17 21
15 15 14 13 13 13 12 13 13 13 13 13 13 14 14 13 12 11 11 11 12 13 13 14 14 12 11 11 11 11 12 13 18 18 18 18 17 16 16 17 17 16 16
15 14 14 13 13 13 13 13 13 13 13 14 14 14 14 14 13 11 10 11 11 13 13 14 13 12 11 11 10 10 12 14 17 22 18 18 18 18 18 20 21 21 22
14 15 15 13 13 13 13 13 13 13 13 14 13 13 14 14 14 13 13 13 13 14 14 14 13 12 12 13 16 15 14 13 14 15 18 20 21 22 22 20 21 21 21
15 17 17 17 15 15 15 14 14 15 13 13 13 14 14 16 15 14 15 18 18 15 18 18 16 17 17 19 19 18 20 19 16 16 16 17 18 20 19 19 20 22 21
17 18 19 18 19 19 17 18 13 12 12 12 13 16 19 13 12 11 11 11 11 12 15 16 17 17 16 16 16 16 20 21 20 16 16 16 16 17 17 19 18 20 19
17 19 19 19 20 20 22 19 19 19 13 13 13 13 12 12 12 12 12 11 11 12 14 14 15 15 15 16 16 16 17 19 20 20 19 17 17 17 17 17 18 18 18
20 20 19 21 22 22 22 23 22 21 23 23 18 15 14 13 13 12 12 15 20 14 15 15 15 14 14 15 16 16 16 18 18 17 16 16 16 17 17 18 17 17 17
20 21 21 22 22 22 22 22 23 23 24 26 24 19 22 15 15 16 16 20 18 17 16 16 16 15 15 15 14 18 18 16 16 18 18 17 17 18 18 17 17 17 17
22 22 21 21 22 23 24 23 24 25 26 27 26 28 28 25 26 27 28 24 24 24 24 22 21 20 20 20 19 19 19 19 20 21 19 19 19 18 18 17 17 17 16
21 22 23 23 24 26 26 27 27 28 28 30 32 26 20 30 33 33 32 31 33 33 31 31 30 29 28 27 27 25 24 23 22 20 20 20 18 18 17 16 16 16 16
23 24 24 25 26 26 27 28 28 28 30 31 34 31 23 32 34 36 36 36 36 36 36 35 33 32 30 30 29 27 26 25 24 24 22 19 18 17 17 16 18 16 16
23 25 26 28 27 28 29 30 29 29 30 34 35 34 36 37 37 37 38 38 37 36 36 35 35 34 33 32 31 30 28 26 25 22 21 19 19 19 19 16 16 18 17
25 26 27 28 29 29 30 32 32 32 33 35 36 34 35 38 38 38 38 37 36 34 34 34 34 33 33 32 32 32 32 28 26 25 24 21 20 20 20 18 17 18 18
27 27 28 30 29 31 31 32 33 34 36 35 37 36 37 36 36 37 37 37 35 33 33 34 34 34 34 31 30 30 27 23 24 23 27 25 24 23 21 21 19 21 22
28 29 30 31 32 32 33 32 32 33 35 36 37 37 35 35 36 36 36 35 32 32 33 33 33 31 32 32 29 25 22 17 18 17 16 22 23 22 23 23 24 23 22

GFSGL_con_lsi_147.txt.gz
Lid_Strength_Index
3 3 2 3 3 2 3 3 2 2 3 3 3 3 2 3 3 3 2 2 3 3 3 3 2 2 3 4 4 3 4 4 5 11 11 11 11 11 10 11 11 10 10
4 4 3 4 3 3 3 3 3 3 3 2 2 3 2 2 2 3 3 3 3 4 3 4 4 5 4 4 5 5 5 6 7 10 12 12 12 11 11 11 11 10 11
6 5 5 5 4 4 4 4 3 3 3 3 3 3 3 3 3 4 4 4 4 4 4 4 4 5 6 6 6 6 8 9 9 11 13 12 12 11 12 12 12 12 11
7 7 7 7 7 7 7 7 6 5 5 6 6 7 6 6 6 6 6 5 5 6 6 6 6 6 6 6 8 8 10 10 10 12 12 13 12 13 12 12 13 11 11
10 10 10 10 9 9 8 8 8 8 8 8 8 8 8 8 9 8 8 6 6 6 8 9 9 11 10 9 8 9 10 12 12 13 13 12 12 12 12 12 12 11 12
11 12 11 11 11 11 11 11 11 10 10 10 10 10 11 11 9 8 8 7 7 8 10 10 9 11 9 9 9 9 9 11 12 12 12 11 12 12 12 12 12 13 13
12 12 12 12 13 13 13 13 13 12 12 12 11 11 11 10 9 9 9 8 9 9 10 11 11 11 11 10 9 9 10 9 9 10 11 12 12 11 11 12 13 13 12
13 13 13 13 13 13 13 13 12 12 12 13 13 12 12 11 10 10 10 10 10 11 11 11 10 11 11 11 11 11 12 11 11 12 11 11 10 10 10 11 12 13 13
13 13 13 12 13 13 13 12 12 13 14 14 14 14 13 12 10 10 10 11 12 12 12 11 11 11 10 10 11 12 12 12 10 10 10 10 10 10 12 13 14 14 14
12 12 12 12 13 13 13 14 14 14 15 15 14 13 13 12 10 10 11 12 12 13 12 12 12 11 10 10 11 12 12 13 12 12 12 12 12 12 11 13 13 14 15
13 13 13 13 13 13 14 14 14 15 15 14 14 13 13 12 11 10 10 12 12 13 13 13 12 10 10 10 11 12 13 13 14 14 14 14 13 13 13 13 13 14 15
13 13 13 13 13 14 14 15 15 14 14 14 14 13 13 12 11 10 10 11 11 12 13 13 12 10 10 10 12 10 10 13 12 12 13 15 15 14 14 15 15 15 14
12 13 13 13 13 14 14 14 14 14 13 13 13 13 13 13 12 10 11 11 12 13 12 11 11 11 12 12 12 13 14 13 12 13 14 14 14 14 15 16 15 17 17
13 13 13 13 14 14 14 13 13 13 13 13 13 13 14 13 13 12 12 13 13 14 14 14 14 14 14 15 15 15 15 16 15 15 15 14 15 15 15 16 17 17 17
13 13 13 14 14 15 15 14 14 13 12 12 13 13 13 14 13 12 13 14 14 15 17 15 15 15 15 15 14 14 14 16 17 17 17 17 17 16 16 16 17 18 18
13 13 13 14 15 16 15 14 12 12 12 12 12 13 14 12 11 11 11 12 12 13 15 15 15 15 15 15 15 15 15 16 18 18 19 19 18 18 18 17 17 18 18
13 13 14 15 16 15 15 15 15 13 12 12 12 12 12 12 12 11 11 11 12 13 16 16 16 16 16 16 17 17 18 19 21 19 20 19 18 18 18 18 18 18 19
13 14 14 15 15 15 15 15 16 18 18 17 13 13 13 12 12 12 13 15 19 19 19 19 20 20 21 22 22 22 22 22 21 21 21 20 20 20 20 20 19 20 20
15 15 15 16 16 16 17 18 19 19 19 20 20 18 17 15 15 16 17 21 23 25 26 25 25 25 25 25 25 25 25 24 24 24 23 23 23 22 22 21 21 22 21
17 18 18 18 18 19 19 19 20 21 22 22 22 24 27 25 27 28 28 27 27 28 28 27 28 28 28 28 28 28 27 27 26 26 26 25 24 23 23 22 22 22 21
18 20 19 19 19 19 19 20 21 22 23 25 26 27 24 26 29 29 30 30 29 30 30 29 30 30 31 31 30 29 29 28 28 27 27 26 26 26 25 24 24 23 21
19 20 19 19 21 21 22 22 22 24 25 25 27 22 23 29 30 31 32 32 33 33 32 31 31 31 31 30 30 29 29 29 29 29 28 28 27 27 27 25 25 23 21
20 22 22 22 23 24 24 24 25 26 27 29 30 31 32 32 33 32 32 34 34 34 35 33 31 33 34 33 32 31 30 29 29 30 29 28 28 27 27 26 25 23 21
20 22 23 24 24 25 26 27 28 29 29 31 31 32 32 34 33 33 34 35 35 35 35 35 34 33 33 33 32 33 32 32 32 31 31 30 29 27 26 26 24 23 22
21 23 24 25 25 27 28 28 29 29 30 30 31 32 32 33 34 34 35 36 36 35 34 34 34 35 35 35 34 33 33 30 30 30 31 30 28 27 26 26 25 23 24
23 24 26 26 27 28 28 28 28 29 29 30 30 31 31 31 32 33 34 34 33 33 34 34 34 36 34 34 33 31 30 25 26 27 25 25 25 25 24 24 25 25 24